CW7427 Weather Reports


Display with metric or nautical units.
time (UTC)temp
F
wind
direction
speed
MPH
gust
MPH
rain 1hr
in
rain 24hr
in
rain mn
in
humidity
%
barometer
mb
20260901021844 77 5 0.0 3.0 0.00 0.00 0.00 36 1020.1
20260901021558 78 5 0.0 5.0 0.00 0.00 0.00 37 1020.2
20260901021046 78 13 0.0 5.0 0.00 0.00 0.00 40 1020.5
20260901020318 77 16 0.0 4.0 0.00 0.00 0.00 40 1020.6
20260901015808 77 332 0.0 2.0 0.00 0.00 0.00 43 1020.7
20260901015300 77 325 0.0 0.0 0.00 0.00 0.00 40 1020.9
20260901014748 77 324 0.0 2.0 0.00 0.00 0.00 43 1021.1
20260901014240 76 322 0.0 3.0 0.00 0.00 0.00 45 1021.2
20260901013728 76 342 0.0 2.0 0.00 0.00 0.00 47 1021.3
20260901013219 76 342 0.0 2.0 0.00 0.00 0.00 44 1021.5
20260901012709 76 343 0.0 2.0 0.00 0.00 0.00 46 1021.6
20260901012202 76 9 0.0 4.0 0.00 0.00 0.00 47 1021.7
20260901011656 76 10 0.0 4.0 0.00 0.00 0.00 46 1021.8
20260901011156 75 328 0.0 1.0 0.00 0.00 0.00 44 1022.0
20260901010657 75 329 0.0 1.0 0.00 0.00 0.00 48 1022.1
20260901010159 74 329 0.0 0.0 0.00 0.00 0.00 46 1022.1
20260901005656 75 326 0.0 0.0 0.00 0.00 0.00 46 1022.3
20260901005150 75 325 0.0 0.0 0.00 0.00 0.00 49 1022.4
20260901004641 74 46 0.0 0.0 0.00 0.00 0.00 49 1022.6
20260901004353 74 48 0.0 0.0 0.00 0.00 0.00 51 1022.6
20260901003624 73 51 0.0 0.0 0.00 0.00 0.00 49 1022.7
20260901003354 73 53 0.0 0.0 0.00 0.00 0.00 49 1022.8
20260901002619 73 53 0.0 0.0 0.00 0.00 0.00 51 1022.9
20260901002108 72 54 0.0 0.0 0.00 0.00 0.00 52 1023.0
20260901001552 71 55 0.0 0.0 0.00 0.00 0.00 55 1023.1
20260901001036 71 55 0.0 0.0 0.00 0.00 0.00 56 1023.2
20260901000747 71 55 0.0 0.0 0.00 0.00 0.00 55 1023.3
20260901000007 70 56 0.0 0.0 0.00 0.00 0.00 57 1023.4
20260831235456 69 56 0.0 0.0 0.00 0.00 0.00 57 1023.5
20260831234947 69 56 0.0 0.0 0.00 0.00 0.00 61 1023.7
20260831234427 68 56 0.0 0.0 0.00 0.00 0.00 63 1023.8
20260831233913 67 56 0.0 0.0 0.00 0.00 0.00 63 1023.7
20260831233407 67 56 0.0 0.0 0.00 0.00 0.00 62 1023.9
20260831232858 66 56 0.0 0.0 0.00 0.00 0.00 64 1023.9
20260831232353 66 56 0.0 0.0 0.00 0.00 0.00 66 1023.9
20260831232332 65 56 0.0 0.0 0.00 0.00 0.00 66 1024.0
20260831231331 64 56 0.0 0.0 0.00 0.00 0.00 67 1024.1
20260831230827 64 56 0.0 0.0 0.00 0.00 0.00 66 1024.2
20260831230315 64 56 0.0 0.0 0.00 0.00 0.00 68 1024.2
20260831225808 63 56 0.0 0.0 0.00 0.00 0.00 69 1024.2
20260831225306 63 56 0.0 0.0 0.00 0.00 0.00 68 1024.2
20260831224759 62 57 0.0 0.0 0.00 0.00 0.00 68 1024.4
20260831224723 62 57 0.0 0.0 0.00 0.00 0.00 68 1024.6
20260831224349 62 57 0.0 0.0 0.00 0.00 0.00 68 1024.5
20260831223252 62 57 0.0 0.0 0.00 0.00 0.00 71 1024.6
20260831222752 61 57 0.0 0.0 0.00 0.00 0.00 72 1024.7
20260831222243 60 58 0.0 0.0 0.00 0.00 0.00 75 1024.7
20260831221735 59 58 0.0 0.0 0.00 0.00 0.00 76 1024.7
20260831221227 58 58 0.0 0.0 0.00 0.00 0.00 78 1024.8
20260831220721 58 58 0.0 0.0 0.00 0.00 0.00 79 1024.9
20260831220207 57 58 0.0 0.0 0.00 0.00 0.00 81 1025.0
20260831215657 57 58 0.0 0.0 0.00 0.00 0.00 82 1024.9
20260831215159 56 58 0.0 0.0 0.00 0.00 0.00 83 1024.8
20260831214651 55 58 0.0 0.0 0.00 0.00 0.00 85 1024.8
20260831214144 54 58 0.0 0.0 0.00 0.00 0.00 88 1024.8
20260831213636 53 58 0.0 0.0 0.00 0.00 0.00 89 1024.7
20260831213128 52 58 0.0 0.0 0.00 0.00 0.00 90 1024.6
20260831212831 52 58 0.0 0.0 0.00 0.00 0.00 91 1024.7
20260831212105 51 58 0.0 0.0 0.00 0.00 0.00 92 1024.7
20260831211556 51 58 0.0 0.0 0.00 0.00 0.00 93 1024.6
20260831211057 50 58 0.0 0.0 0.00 0.00 0.00 93 1024.6
20260831210551 49 58 0.0 0.0 0.00 0.00 0.00 93 1024.6
20260831210027 49 58 0.0 0.0 0.00 0.00 0.00 93 1024.3
20260831205528 49 58 0.0 0.0 0.00 0.00 0.00 94 1024.3
20260831205251 48 58 0.0 0.0 0.00 0.00 0.00 94 1024.3
20260831204521 48 58 0.0 0.0 0.00 0.00 0.00 94 1024.3
20260831204011 47 58 0.0 0.0 0.00 0.00 0.00 94 1024.3
20260831203505 47 58 0.0 0.0 0.00 0.00 0.00 93 1024.2
20260831203214 46 58 0.0 0.0 0.00 0.00 0.00 93 1024.2
20260831202451 46 58 0.0 0.0 0.00 0.00 0.00 93 1024.2
20260831201951 47 58 0.0 0.0 0.00 0.00 0.00 93 1024.1
20260831201705 47 58 0.0 0.0 0.00 0.00 0.00 93 1024.1
20260831200944 47 58 0.0 0.0 0.00 0.00 0.00 93 1024.1
20260831200429 47 58 0.0 0.0 0.00 0.00 0.00 93 1024.1
20260831200412 47 58 0.0 0.0 0.00 0.00 0.00 92 1024.1
20260831195409 47 58 0.0 0.0 0.00 0.00 0.00 92 1024.0
20260831194831 47 58 0.0 0.0 0.00 0.00 0.00 92 1024.0
20260831194303 47 58 0.0 0.0 0.00 0.00 0.00 92 1024.0
20260831193803 47 58 0.0 0.0 0.00 0.00 0.00 92 1024.1
20260831193254 48 58 0.0 0.0 0.00 0.00 0.00 92 1024.0
20260831192755 48 58 0.0 0.0 0.00 0.00 0.00 91 1024.1
20260831192243 48 58 0.0 0.0 0.00 0.00 0.00 91 1024.0
20260831191733 49 58 0.0 0.0 0.00 0.00 0.00 91 1024.1
20260831191229 49 58 0.0 0.0 0.00 0.00 0.00 91 1024.2
20260831190724 50 58 0.0 0.0 0.00 0.00 0.00 91 1024.2
20260831190158 50 58 0.0 0.0 0.00 0.00 0.00 91 1024.3
20260831185631 50 58 0.0 0.0 0.00 0.00 0.00 91 1024.2
20260831185131 50 58 0.0 0.0 0.00 0.00 0.00 91 1024.2
20260831184610 50 58 0.0 0.0 0.00 0.00 0.00 91 1024.1
20260831184101 50 58 0.0 0.0 0.00 0.00 0.00 91 1024.1
20260831183554 50 58 0.0 0.0 0.00 0.00 0.00 91 1024.0
20260831183306 50 58 0.0 0.0 0.00 0.00 0.00 91 1024.1
20260831182539 50 58 0.0 0.0 0.00 0.00 0.00 91 1024.0
20260831182020 51 58 0.0 0.0 0.00 0.00 0.00 90 1024.0
20260831181724 51 58 0.0 0.0 0.00 0.00 0.00 90 1024.0
20260831180953 51 58 0.0 0.0 0.00 0.00 0.00 90 1024.0
20260831180437 51 58 0.0 0.0 0.00 0.00 0.00 91 1024.1
20260831175921 51 58 0.0 0.0 0.00 0.00 0.00 91 1024.1
20260831175409 51 58 0.0 0.0 0.00 0.00 0.00 91 1024.1
20260831174852 51 58 0.0 0.0 0.00 0.00 0.00 90 1024.1
20260831174353 52 58 0.0 0.0 0.00 0.00 0.00 91 1024.1
20260831173824 52 58 0.0 0.0 0.00 0.00 0.00 91 1024.1
20260831173311 52 58 0.0 0.0 0.00 0.00 0.00 91 1024.2
20260831172801 52 58 0.0 0.0 0.00 0.00 0.00 91 1024.2
20260831172236 52 58 0.0 0.0 0.00 0.00 0.00 91 1024.2
20260831171728 52 58 0.0 0.0 0.00 0.00 0.00 91 1024.3
20260831171208 52 58 0.0 0.0 0.00 0.00 0.00 91 1024.3
20260831170700 52 58 0.0 0.0 0.00 0.00 0.00 91 1024.3
20260831170140 51 58 0.0 0.0 0.00 0.00 0.00 90 1024.4
20260831165640 51 58 0.0 0.0 0.00 0.00 0.00 91 1024.3
20260831165352 52 58 0.0 0.0 0.00 0.00 0.00 90 1024.4
20260831165033 52 58 0.0 0.0 0.00 0.00 0.00 91 1024.5
20260831164659 52 58 0.0 0.0 0.00 0.00 0.00 90 1024.4
20260831163556 51 58 0.0 0.0 0.00 0.00 0.00 91 1024.5
20260831163052 51 58 0.0 0.0 0.00 0.00 0.00 91 1024.6
20260831162552 51 58 0.0 0.0 0.00 0.00 0.00 91 1024.6
20260831162045 51 58 0.0 0.0 0.00 0.00 0.00 91 1024.7
20260831161545 51 58 0.0 0.0 0.00 0.00 0.00 91 1024.7
20260831161019 51 58 0.0 0.0 0.00 0.00 0.00 91 1024.8
20260831160518 50 58 0.0 0.0 0.00 0.00 0.00 91 1024.9
20260831160003 50 58 0.0 0.0 0.00 0.00 0.00 91 1024.9
20260831155502 50 58 0.0 0.0 0.00 0.00 0.00 90 1025.0
20260831154958 50 58 0.0 0.0 0.00 0.00 0.00 90 1025.0
20260831154455 51 58 0.0 0.0 0.00 0.00 0.00 90 1025.1
20260831154211 51 58 0.0 0.0 0.00 0.00 0.00 90 1025.2
20260831153450 51 58 0.0 0.0 0.00 0.00 0.00 90 1025.2
20260831152940 51 58 0.0 0.0 0.00 0.00 0.00 89 1025.4
20260831152428 51 58 0.0 0.0 0.00 0.00 0.00 90 1025.5
20260831151902 51 58 0.0 0.0 0.00 0.00 0.00 90 1025.5
20260831151356 51 58 0.0 0.0 0.00 0.00 0.00 89 1025.6
20260831150847 51 58 0.0 0.0 0.00 0.00 0.00 89 1025.7
20260831150346 51 58 0.0 0.0 0.00 0.00 0.00 89 1025.7
20260831145840 51 58 0.0 0.0 0.00 0.00 0.00 88 1025.7
20260831145544 52 58 0.0 0.0 0.00 0.00 0.00 88 1025.8
20260831144821 52 58 0.0 0.0 0.00 0.00 0.00 88 1025.8
20260831144543 52 58 0.0 0.0 0.00 0.00 0.00 88 1025.8
20260831143813 52 58 0.0 0.0 0.00 0.00 0.00 87 1025.8
20260831143302 52 58 0.0 0.0 0.00 0.00 0.00 87 1025.8
20260831143034 53 58 0.0 0.0 0.00 0.00 0.00 87 1025.9
20260831142525 53 58 0.0 0.0 0.00 0.00 0.00 86 1025.8
20260831141802 53 58 0.0 0.0 0.00 0.00 0.00 85 1025.8
20260831141256 54 58 0.0 0.0 0.00 0.00 0.00 84 1026.0
20260831140746 54 58 0.0 0.0 0.00 0.00 0.00 84 1026.0
20260831140235 54 58 0.0 0.0 0.00 0.00 0.00 84 1026.1
20260831135735 54 58 0.0 0.0 0.00 0.00 0.00 84 1026.1
20260831135210 54 58 0.0 0.0 0.00 0.00 0.00 83 1026.2
20260831134710 54 58 0.0 0.0 0.00 0.00 0.00 82 1026.1
20260831134434 55 58 0.0 0.0 0.00 0.00 0.00 81 1026.1
20260831133708 55 58 0.0 0.0 0.00 0.00 0.00 80 1026.2
20260831133419 56 58 0.0 0.0 0.00 0.00 0.00 78 1026.2
20260831132645 57 58 0.0 0.0 0.00 0.00 0.00 77 1026.3
20260831132139 57 58 0.0 0.0 0.00 0.00 0.00 77 1026.3
20260831131638 58 58 0.0 0.0 0.00 0.00 0.00 77 1026.4
20260831131134 58 58 0.0 0.0 0.00 0.00 0.00 76 1026.4
20260831130631 58 58 0.0 0.0 0.00 0.00 0.00 76 1026.6
20260831130118 58 58 0.0 0.0 0.00 0.00 0.00 76 1026.6
20260831125604 58 58 0.0 0.0 0.00 0.00 0.00 74 1026.7
20260831125049 59 58 0.0 0.0 0.00 0.00 0.00 73 1026.7
20260831124535 59 58 0.0 0.0 0.00 0.00 0.00 73 1026.7
20260831124249 59 58 0.0 0.0 0.00 0.00 0.00 72 1026.7
20260831123725 59 58 0.0 0.0 0.00 0.00 0.00 72 1026.7
20260831122938 59 58 0.0 0.0 0.00 0.00 0.00 72 1026.7
20260831122437 59 58 0.0 0.0 0.00 0.00 0.00 72 1026.8
20260831121907 59 58 0.0 0.0 0.00 0.00 0.00 72 1026.8
20260831121408 59 58 0.0 0.0 0.00 0.00 0.00 72 1026.8
20260831120852 59 58 0.0 0.0 0.00 0.00 0.00 72 1026.9
20260831120339 59 58 0.0 0.0 0.00 0.00 0.00 72 1026.9
20260831115839 59 58 0.0 0.0 0.00 0.00 0.00 72 1027.0
20260831115330 59 58 0.0 0.0 0.00 0.00 0.00 72 1027.0
20260831114824 59 58 0.0 0.0 0.00 0.00 0.00 73 1027.0
20260831114529 59 58 0.0 0.0 0.00 0.00 0.00 73 1027.0
20260831113805 58 58 0.0 0.0 0.00 0.00 0.00 74 1027.0
20260831113301 58 58 0.0 0.0 0.00 0.00 0.00 75 1027.1
20260831113015 58 58 0.0 0.0 0.00 0.00 0.00 75 1027.2
20260831112510 58 58 0.0 0.0 0.00 0.00 0.00 77 1027.2
20260831111725 58 58 0.0 0.0 0.00 0.00 0.00 77 1027.3
20260831111219 58 58 0.0 0.0 0.00 0.00 0.00 77 1027.3
20260831110708 58 58 0.0 0.0 0.00 0.00 0.00 77 1027.2
20260831110209 58 58 0.0 0.0 0.00 0.00 0.00 77 1027.2
20260831105704 58 58 0.0 0.0 0.00 0.00 0.00 77 1027.3
20260831105144 59 58 0.0 0.0 0.00 0.00 0.00 77 1027.3
20260831104630 59 58 0.0 0.0 0.00 0.00 0.00 78 1027.2
20260831104121 59 58 0.0 0.0 0.00 0.00 0.00 77 1027.2
20260831103614 60 58 0.0 0.0 0.00 0.00 0.00 77 1027.2
20260831103101 60 58 0.0 0.0 0.00 0.00 0.00 76 1027.1
20260831102551 60 58 0.0 0.0 0.00 0.00 0.00 76 1027.1
20260831102041 60 58 0.0 1.0 0.00 0.00 0.00 77 1027.0
20260831101533 60 62 0.0 1.0 0.00 0.00 0.00 77 1027.0
20260831101021 61 25 0.0 2.0 0.00 0.00 0.00 77 1026.9
20260831100511 61 26 0.0 2.0 0.00 0.00 0.00 78 1026.9
20260831100005 61 25 0.0 2.0 0.00 0.00 0.00 78 1026.9
20260831095459 61 30 0.0 4.0 0.00 0.00 0.00 78 1026.8
20260831094949 61 0 0.0 4.0 0.00 0.00 0.00 78 1026.8
20260831094709 61 308 0.0 2.0 0.00 0.00 0.00 78 1026.8
20260831093933 61 298 0.0 6.0 0.00 0.00 0.00 78 1026.9
20260831093423 61 5 0.0 6.0 0.00 0.00 0.00 78 1026.9
20260831092914 61 325 0.0 4.0 0.00 0.00 0.00 78 1026.9
20260831092405 61 9 0.0 2.0 0.00 0.00 0.00 78 1026.9
20260831091904 61 11 0.0 2.0 0.00 0.00 0.00 78 1026.9
20260831091359 62 10 0.0 1.0 0.00 0.00 0.00 78 1027.0
20260831090859 62 10 0.0 2.0 0.00 0.00 0.00 78 1027.0
20260831090330 62 46 0.0 6.0 0.00 0.00 0.00 77 1026.9
20260831085820 62 42 0.0 4.0 0.00 0.00 0.00 77 1027.0
20260831085310 62 40 0.0 4.0 0.00 0.00 0.00 77 1027.0
20260831084809 62 46 0.0 4.0 0.00 0.00 0.00 76 1027.0
20260831084259 62 46 0.0 4.0 0.00 0.00 0.00 76 1027.0
20260831083749 63 66 0.0 4.0 0.00 0.00 0.00 75 1026.9
20260831083502 63 63 0.0 4.0 0.00 0.00 0.00 75 1026.9
20260831082733 63 63 0.0 4.0 0.00 0.00 0.00 74 1026.8
20260831082223 63 63 0.0 1.0 0.00 0.00 0.00 74 1026.8
20260831081723 63 63 0.0 2.0 0.00 0.00 0.00 74 1026.8
20260831081221 64 63 0.0 2.0 0.00 0.00 0.00 73 1026.8
20260831080944 64 63 0.0 0.0 0.00 0.00 0.00 73 1026.7
20260831080211 64 63 0.0 0.0 0.00 0.00 0.00 71 1026.7
20260831075705 64 63 0.0 0.0 0.00 0.00 0.00 71 1026.7
20260831075135 65 63 0.0 0.0 0.00 0.00 0.00 70 1026.7
20260831074625 65 63 0.0 2.0 0.00 0.00 0.00 69 1026.7
20260831074119 65 63 0.0 2.0 0.00 0.00 0.00 67 1026.8
20260831073613 66 61 0.0 2.0 0.00 0.00 0.00 67 1026.7
20260831073104 66 61 0.0 4.0 0.00 0.00 0.00 65 1026.6
20260831072557 67 61 0.0 5.0 0.00 0.00 0.00 64 1026.7
20260831072315 67 61 0.0 5.0 0.00 0.00 0.00 63 1026.6
20260831071541 67 61 0.0 4.0 0.00 0.00 0.00 63 1026.6
20260831071030 68 60 0.0 4.0 0.00 0.00 0.00 62 1026.4
20260831070748 68 61 0.0 2.0 0.00 0.00 0.00 63 1026.3
20260831070233 68 61 1.0 4.0 0.00 0.00 0.00 63 1026.3
20260831065505 69 60 1.0 4.0 0.00 0.00 0.00 64 1026.3
20260831065214 69 39 1.0 4.0 0.00 0.00 0.00 65 1026.4
20260831064708 69 351 0.0 3.0 0.00 0.00 0.00 65 1026.3
20260831063936 70 355 1.0 4.0 0.00 0.00 0.00 65 1026.2
20260831063425 70 42 1.0 6.0 0.00 0.00 0.00 65 1026.2
20260831062909 70 42 2.0 6.0 0.00 0.00 0.00 65 1026.1
20260831062352 71 50 1.0 6.0 0.00 0.00 0.00 64 1026.1
20260831061840 71 50 2.0 7.0 0.00 0.00 0.00 64 1026.0
20260831061324 71 48 2.0 7.0 0.00 0.00 0.00 64 1026.0
20260831061033 71 59 2.0 8.0 0.00 0.00 0.00 64 1026.0
20260831060256 71 121 2.0 8.0 0.00 0.00 0.00 63 1026.0
20260831055748 71 107 2.0 7.0 0.00 0.00 0.00 63 1026.0
20260831055232 71 142 2.0 7.0 0.00 0.00 0.00 63 1026.0
20260831054943 72 102 1.0 6.0 0.00 0.00 0.00 63 1026.0
20260831054215 72 71 2.0 6.0 0.00 0.00 0.00 63 1026.0
20260831053934 72 74 2.0 8.0 0.00 0.00 0.00 62 1026.0
20260831053205 72 89 2.0 8.0 0.00 0.00 0.00 61 1026.0
20260831052704 72 51 2.0 7.0 0.00 0.00 0.00 61 1026.0
20260831052420 73 26 2.0 6.0 0.00 0.00 0.00 61 1026.2
20260831051702 73 41 2.0 7.0 0.00 0.00 0.00 60 1026.2
20260831051156 73 35 2.0 7.0 0.00 0.00 0.00 59 1026.2
20260831051148 73 54 2.0 8.0 0.00 0.00 0.00 58 1026.3
20260831050415 74 70 3.0 8.0 0.00 0.00 0.00 57 1026.3
20260831045644 74 23 2.0 7.0 0.00 0.00 0.00 55 1026.3
20260831045136 74 51 2.0 6.0 0.00 0.00 0.00 56 1026.2
20260831044625 74 56 2.0 5.0 0.00 0.00 0.00 55 1026.3
20260831044119 74 54 2.0 7.0 0.00 0.00 0.00 55 1026.3
20260831043612 74 49 2.0 7.0 0.00 0.00 0.00 53 1026.4
20260831043103 74 96 2.0 8.0 0.00 0.00 0.00 54 1026.4
20260831042824 74 57 1.0 8.0 0.00 0.00 0.00 52 1026.4
20260831042047 75 106 1.0 4.0 0.00 0.00 0.00 50 1026.4
20260831041540 75 106 1.0 4.0 0.00 0.00 0.00 47 1026.4
20260831041031 75 109 1.0 5.0 0.00 0.00 0.00 48 1026.4
20260831040750 74 109 1.0 5.0 0.00 0.00 0.00 48 1026.6
20260831040009 74 111 1.0 4.0 0.00 0.00 0.00 47 1026.6
20260831035504 74 111 1.0 4.0 0.00 0.00 0.00 48 1026.7
20260831035232 74 126 1.0 4.0 0.00 0.00 0.00 48 1026.7
20260831034502 74 126 0.0 2.0 0.00 0.00 0.00 49 1026.7
20260831034003 74 126 0.0 6.0 0.00 0.00 0.00 46 1026.8
20260831033505 75 126 0.0 6.0 0.00 0.00 0.00 47 1026.9
20260831033004 75 124 0.0 2.0 0.00 0.00 0.00 50 1027.0
20260831032505 74 124 0.0 0.0 0.00 0.00 0.00 49 1027.0
20260831031958 74 124 0.0 5.0 0.00 0.00 0.00 48 1027.2
20260831031453 74 124 1.0 8.0 0.00 0.00 0.00 47 1027.3
20260831030953 74 161 1.0 8.0 0.00 0.00 0.00 50 1027.3
20260831030448 74 66 0.0 2.0 0.00 0.00 0.00 48 1027.3
20260831025945 74 69 0.0 2.0 0.00 0.00 0.00 48 1027.4
20260831025707 74 69 0.0 4.0 0.00 0.00 0.00 48 1027.4
20260831024937 74 69 1.0 4.0 0.00 0.00 0.00 50 1027.5
20260831024909 74 69 0.0 4.0 0.00 0.00 0.00 50 1027.6
20260831023920 74 70 0.0 5.0 0.00 0.00 0.00 49 1027.7
20260831023413 73 70 1.0 5.0 0.00 0.00 0.00 50 1027.7
20260831022908 73 121 0.0 5.0 0.00 0.00 0.00 51 1027.7
20260831022410 74 121 0.0 2.0 0.00 0.00 0.00 52 1027.9